Regional Weather Roundup
Issued by NWS Upton, NY

Current Version | Previous Version | Text Only | Print | Product List | Glossary On
Versions: 1 2 3 4 5 6 7 8 9 10 11 12 13 14 15 16 17 18 19 20 21 22 23 24 25 26 27 28 29 30 31 32 33 34 35 36 37 38 39 40 41 42 43 44 45 46 47 48 49 50
000 ASUS41 KOKX 200805 RWROKX REGIONAL WEATHER ROUNDUP NATIONAL WEATHER SERVICE NEW YORK NY 300 AM EST SAT DEC 20 2014 NOTE: "FAIR" INDICATES FEW OR NO CLOUDS BELOW 12,000 FEET WITH NO SIGNIFICANT WEATHER AND/OR OBSTRUCTIONS TO VISIBILITY. NYZ071-072-176-178-NJZ106-104-200900- NEW YORK CITY METRO AREA CITY SKY/WX TMP DP RH WIND PRES REMARKS CENTRAL PARK CLOUDY 31 19 61 VRB6 30.22R WCI 25 LAGUARDIA APRT CLOUDY 32 21 64 N7 30.20R WCI 26 KENNEDY INTL CLOUDY 31 19 61 N12 30.22R WCI 22 NEWARK/LIBERTY CLOUDY 32 22 66 N7 30.21R WCI 26 BRNX BOT. GARD N/A N/A N/A N/A E6 30.20F TETERBORO CLOUDY 32 20 61 NE6 30.20R WCI 26 $$ NYZ177-179-078>081-200900- LONG ISLAND NEW YORK CITY SKY/WX TMP DP RH WIND PRES REMARKS FARMINGDALE CLOUDY 31 21 66 N7 30.19S WCI 24 ISLIP CLOUDY 32 21 64 N6 30.17S WCI 26 SHIRLEY CLOUDY 32 22 66 N7 30.19S WCI 26 WESTHAMPTON CLOUDY 32 21 64 N7 30.19S WCI 26 MONTAUK POINT N/A 34 23 64 N7 30.18R WCI 28 $$ NYZ052-065-067-200900- HUDSON VALLEY CITY SKY/WX TMP DP RH WIND PRES REMARKS WHITE PLAINS PTCLDY 27 19 72 N6 30.17R WCI 20 NEWBURGH CLOUDY 28 23 80 VRB6 30.19S WCI 22 MONTGOMERY CLOUDY 28 22 78 N6 30.18S WCI 22 POUGHKEEPSIE CLOUDY 30 20 66 NE9 30.20F WCI 22 ALBANY CLOUDY 26 17 68 N8 30.25R WCI 18 $$ NJZ001-105-106-008-010-013-015-019>022-104-200900- NEW JERSEY CITY SKY/WX TMP DP RH WIND PRES REMARKS NEWARK/LIBERTY CLOUDY 32 22 66 N7 30.21R WCI 26 TETERBORO CLOUDY 32 20 61 NE6 30.20R WCI 26 CALDWELL CLOUDY 31 21 66 VRB3 30.20S MORRISTOWN CLOUDY 34 21 60 N3 30.20R SOMERVILLE CLOUDY 32 20 61 N5 30.20R WCI 27 SUSSEX CLOUDY 29 20 69 VRB6 30.18S WCI 23 ANDOVER N/A 28 20 71 N6 30.19R WCI 22 TRENTON CLOUDY 32 21 64 N5 30.21R WCI 27 MILLVILLE CLOUDY 25 23 92 CALM 30.22R ATLANTIC CITY CLOUDY 26 20 77 CALM 30.22R WRIGHTSTOWN CLOUDY 31 23 71 N8 30.19R WCI 24 TOMS RIVER CLOUDY 30 21 69 CALM 30.22R BELMAR CLOUDY 30 19 64 W6 30.20R WCI 24 $$ PAZ047>061-062-071-200900- EASTERN PENNSYLVANIA CITY SKY/WX TMP DP RH WIND PRES REMARKS PHILADELPHIA CLOUDY 34 22 61 NW5 30.23R WCI 30 ALLENTOWN CLOUDY 31 20 63 NW6 30.22R WCI 25 SCRANTON CLOUDY 29 20 69 N9 30.17S WCI 20 $$ CTZ002-004>006-009-010-012-RIZ004-006-007-MAZ004-011-015-200900- SOUTHERN NEW ENGLAND IN CT CITY SKY/WX TMP DP RH WIND PRES REMARKS BRADLEY INTL CLEAR 25 18 74 N8 30.19S WCI 16 HARTFORD CLEAR 27 19 72 N6 30.20S WCI 20 DANBURY CLOUDY 28 18 66 N10 30.18F WCI 19 WTRBRY/OXFORD CLOUDY 27 16 63 N9 30.17S WCI 17 BRIDGEPORT CLOUDY 31 22 69 N9 30.19F WCI 23 MERIDEN CLOUDY 30 20 66 N5 30.19S WCI 25 NEW HAVEN CLOUDY 33 21 61 N7 30.19S WCI 27 CHESTER FAIR 28 23 80 N6 30.17S WCI 22 GROTON CLEAR 26 21 81 N6 30.18S WCI 19 WILLIMANTIC CLEAR 24 19 81 CALM 30.19R IN RI CITY SKY/WX TMP DP RH WIND PRES REMARKS PROVIDENCE PTCLDY 27 20 75 N9 30.18S WCI 18 BLOCK ISLAND CLOUDY 30 19 64 N8 30.16R WCI 23 WESTERLY CLEAR 27 21 78 N3 30.18S IN MA CITY SKY/WX TMP DP RH WIND PRES REMARKS BOSTON CLEAR 28 20 71 NW9 30.19R WCI 19 WORCESTER CLEAR 23 19 85 N6 30.13R WCI 16 WESTFIELD CLEAR 22 19 89 N5 30.19S WCI 16 PROVINCETOWN CLOUDY 37 27 65 N13 30.15S WCI 29 NANTUCKET CLOUDY 38 29 70 NW9 30.14R WCI 31 $$ ANZ330-335-338-340-345-350-353-355-200900- COASTAL MARINE OBSERVATIONS STATION/POSITION TIME SKY/WX TEMP WIND PRES VSBY WAVE AIR SEA DIR/SP/G HT/PER (UTC) (F) (DEG/KT/KT) (MB) (MI) (FT/S) NY HARB ENTRANCE 0800 34 46 10/ 12/ 16 1022.8 1/ 3 4S FIRE IS 0800 46 N/A 1/11 20S FIRE ISLAND 0700 36 49 1022.4 3/ 4 23SW MTP 0800 N/A 2/ 5 HUDSON CANYON 0800 38 54 330/ 14/ 17 1021.0 4/ 5 EXECUTION ROCKS 0800 32 42 30/ 10/ 16 N/A WESTERN LI SOUND 0800 31 20/ 8/ 14 N/A 0 CENTRAL LI SOUND 0700 32 44 350/ 12/ 17 N/A 1/ 2 EASTERN LI SOUND NOT AVBL ROBBINS REEF 0800 32 130/ 2/ 3 1021.6 $$ >>>>>>>>>>>>>>>>>>>>>>>>>>>> KEY <<<<<<<<<<<<<<<<<<<<<<<<<<< > < > SKY/WX - SKY CONDITION/PRESENT WEATHER < > TMP - TEMPERATURE IN FAHRENHEIT < > DP - DEWPOINT IN FAHRENHEIT < > RH - RELATIVE HUMIDITY IN PERCENT < > WIND - DIRECTION AND SPEED IN MPH < > PRES - MEAN SEA LEVEL PRESSURE IN INCHES OF HG < > WCI - WIND CHILL INDEX < > VSB - VISIBILITY IN MILES < > HX - HEAT INDEX < > TC - TEMPERATURE IN CELSIUS < > VRB - VARIABLE WIND DIRECTION < > < >>>>>>>>>>>>>>>>>>>>>>>>>>>> KEY <<<<<<<<<<<<<<<<<<<<<<<<<<<

USA.gov is the U.S. government's official web portal to all federal, state and local government web resources and services.